Location: 22
(39.7117°N, 89.5929°W)
Time: 06:20:20
(UTC-05:00)

Vanguard 1 Rocket - Pass Details

Date: 13 February 2023
Orbit: 652 x 4223 km, 34.3° (Epoch: 26 March)

Event Time Altitude Azimuth Distance (km) Brightness Sun altitude
Rises 09:16:54 0° 228° (SW) 3,194 10.2 23.1°
Reaches altitude 10° 09:19:03 10° 220° (SW) 2,447 9.7 23.4°
Maximum altitude 09:24:15 38° 152° (SSE) 1,655 10.4 24.1°
Drops below altitude 10° 09:32:58 10° 89° (E) 4,118 11.5 25.3°
Sets 09:37:45 0° 83° (E) 5,728 12.0 25.9°
